Time,TemperatureF,DewpointF,PressureIn,WindDirection,WindDirectionDegrees,WindSpeedMPH,WindSpeedGustMPH,Humidity,HourlyPrecipIn,Conditions,Clouds,dailyrainin,SoftwareType,DateUTC
2013-01-21 00:06:00,29.7,10.0,29.63,WSW,254,3.1,3.1,44,0.00,,,0.00,WXlink_for_OpenVMS,2013-01-21 05:06:00,
2013-01-21 00:10:00,29.5,10.0,29.63,WNW,285,2.7,4.0,44,0.00,,,0.00,WXlink_for_OpenVMS,2013-01-21 05:10:00,
2013-01-21 00:15:00,29.5,10.0,29.66,WNW,295,4.0,4.0,44,0.00,,,0.00,WXlink_for_OpenVMS,2013-01-21 05:15:00,
2013-01-21 00:21:00,29.5,10.0,29.66,West,281,4.5,4.5,44,0.00,,,0.00,WXlink_for_OpenVMS,2013-01-21 05:21:00,
2013-01-21 00:25:00,29.3,10.0,29.66,SW,226,4.0,5.4,44,0.00,,,0.00,WXlink_for_OpenVMS,2013-01-21 05:25:00,
2013-01-21 00:31:00,29.1,10.0,29.66,WNW,293,4.5,5.4,44,0.00,,,0.00,WXlink_for_OpenVMS,2013-01-21 05:31:00,
2013-01-21 00:40:00,28.9,10.0,29.66,SSW,203,5.8,8.3,44,0.00,,,0.00,WXlink_for_OpenVMS,2013-01-21 05:40:00,
2013-01-21 00:45:00,28.8,10.0,29.66,SW,218,3.6,5.8,44,0.00,,,0.00,WXlink_for_OpenVMS,2013-01-21 05:45:00,
2013-01-21 00:51:00,28.6,9.0,29.66,West,269,3.6,3.6,44,0.00,,,0.00,WXlink_for_OpenVMS,2013-01-21 05:51:00,
2013-01-21 00:56:00,28.4,9.0,29.66,WSW,253,4.5,4.5,44,0.00,,,0.00,WXlink_for_OpenVMS,2013-01-21 05:56:00,
2013-01-21 01:01:00,28.4,9.0,29.66,West,264,5.4,5.4,44,0.00,,,0.00,WXlink_for_OpenVMS,2013-01-21 06:01:00,
2013-01-21 01:06:00,28.2,9.0,29.66,West,267,4.0,4.0,44,0.00,,,0.00,WXlink_for_OpenVMS,2013-01-21 06:06:00,
2013-01-21 01:10:00,28.0,9.0,29.66,WSW,258,5.8,5.8,44,0.00,,,0.00,WXlink_for_OpenVMS,2013-01-21 06:10:00,
2013-01-21 01:16:00,27.9,9.0,29.66,WSW,251,4.5,5.4,44,0.00,,,0.00,WXlink_for_OpenVMS,2013-01-21 06:16:00,
2013-01-21 01:20:00,27.9,9.0,29.66,WNW,302,3.1,3.6,44,0.00,,,0.00,WXlink_for_OpenVMS,2013-01-21 06:20:00,
2013-01-21 01:25:00,27.7,9.0,29.66,WNW,289,3.6,3.6,44,0.00,,,0.00,WXlink_for_OpenVMS,2013-01-21 06:25:00,
2013-01-21 01:31:00,27.7,9.0,29.69,WNW,293,3.1,3.1,44,0.00,,,0.00,WXlink_for_OpenVMS,2013-01-21 06:31:00,
2013-01-21 01:36:00,27.7,9.0,29.69,West,264,0.0,0.0,44,0.00,,,0.00,WXlink_for_OpenVMS,2013-01-21 06:36:00,
2013-01-21 01:45:00,27.5,8.0,29.69,West,269,3.6,3.6,44,0.00,,,0.00,WXlink_for_OpenVMS,2013-01-21 06:45:00,
2013-01-21 01:51:00,27.5,9.0,29.69,WSW,257,2.7,2.7,45,0.00,,,0.00,WXlink_for_OpenVMS,2013-01-21 06:51:00,
2013-01-21 01:55:00,27.3,9.0,29.69,WNW,301,4.0,5.4,45,0.00,,,0.00,WXlink_for_OpenVMS,2013-01-21 06:55:00,
2013-01-21 02:00:00,27.1,9.0,29.69,WNW,286,4.9,4.9,45,0.00,,,0.00,WXlink_for_OpenVMS,2013-01-21 07:00:00,
2013-01-21 02:06:00,27.1,9.0,29.69,West,271,4.0,4.9,45,0.00,,,0.00,WXlink_for_OpenVMS,2013-01-21 07:06:00,
2013-01-21 02:15:00,27.0,8.0,29.69,West,267,3.1,3.1,45,0.00,,,0.00,WXlink_for_OpenVMS,2013-01-21 07:15:00,
2013-01-21 02:20:00,27.0,8.0,29.69,WSW,251,3.6,4.9,45,0.00,,,0.00,WXlink_for_OpenVMS,2013-01-21 07:20:00,
2013-01-21 02:25:00,27.0,8.0,29.69,West,260,0.0,0.0,45,0.00,,,0.00,WXlink_for_OpenVMS,2013-01-21 07:25:00,
2013-01-21 02:31:00,26.8,8.0,29.72,NW,314,3.1,4.0,45,0.00,,,0.00,WXlink_for_OpenVMS,2013-01-21 07:31:00,
2013-01-21 02:40:00,26.4,8.0,29.72,NW,309,2.7,4.0,46,0.00,,,0.00,WXlink_for_OpenVMS,2013-01-21 07:40:00,
2013-01-21 02:46:00,26.4,8.0,29.72,WNW,298,3.1,3.1,46,0.00,,,0.00,WXlink_for_OpenVMS,2013-01-21 07:46:00,
2013-01-21 02:51:00,26.2,8.0,29.72,NW,314,4.5,4.5,46,0.00,,,0.00,WXlink_for_OpenVMS,2013-01-21 07:51:00,
2013-01-21 02:55:00,26.1,8.0,29.72,WNW,295,2.7,2.7,46,0.00,,,0.00,WXlink_for_OpenVMS,2013-01-21 07:55:00,
2013-01-21 03:00:00,26.1,8.0,29.72,NW,313,3.6,4.9,46,0.00,,,0.00,WXlink_for_OpenVMS,2013-01-21 08:00:00,
2013-01-21 03:06:00,25.9,8.0,29.72,WNW,294,5.4,5.4,46,0.00,,,0.00,WXlink_for_OpenVMS,2013-01-21 08:06:00,
2013-01-21 03:10:00,25.7,7.0,29.72,West,272,3.6,4.0,45,0.00,,,0.00,WXlink_for_OpenVMS,2013-01-21 08:10:00,
2013-01-21 03:15:00,25.5,7.0,29.72,SW,219,5.8,5.8,45,0.00,,,0.00,WXlink_for_OpenVMS,2013-01-21 08:15:00,
2013-01-21 03:20:00,25.5,7.0,29.72,WSW,254,4.5,6.3,45,0.00,,,0.00,WXlink_for_OpenVMS,2013-01-21 08:20:00,
2013-01-21 03:26:00,25.5,7.0,29.72,NNW,327,3.1,4.5,45,0.00,,,0.00,WXlink_for_OpenVMS,2013-01-21 08:26:00,
2013-01-21 03:31:00,25.5,7.0,29.72,SW,233,3.6,3.6,44,0.00,,,0.00,WXlink_for_OpenVMS,2013-01-21 08:31:00,
2013-01-21 03:36:00,25.3,6.0,29.72,WNW,290,4.0,4.9,44,0.00,,,0.00,WXlink_for_OpenVMS,2013-01-21 08:36:00,
2013-01-21 03:45:00,25.3,6.0,29.72,SW,222,3.6,4.0,44,0.00,,,0.00,WXlink_for_OpenVMS,2013-01-21 08:45:00,
2013-01-21 03:51:00,25.3,6.0,29.72,WNW,294,2.2,2.7,44,0.00,,,0.00,WXlink_for_OpenVMS,2013-01-21 08:51:00,
2013-01-21 03:56:00,25.3,6.0,29.72,West,280,0.0,0.0,44,0.00,,,0.00,WXlink_for_OpenVMS,2013-01-21 08:56:00,
2013-01-21 04:01:00,25.3,6.0,29.75,WNW,290,0.0,0.0,44,0.00,,,0.00,WXlink_for_OpenVMS,2013-01-21 09:01:00,
2013-01-21 04:10:00,25.2,6.0,29.75,WNW,302,3.1,4.0,44,0.00,,,0.00,WXlink_for_OpenVMS,2013-01-21 09:10:00,
2013-01-21 04:15:00,25.0,6.0,29.75,WNW,291,0.0,0.0,44,0.00,,,0.00,WXlink_for_OpenVMS,2013-01-21 09:15:00,
2013-01-21 04:20:00,24.8,6.0,29.75,WNW,291,0.0,0.0,44,0.00,,,0.00,WXlink_for_OpenVMS,2013-01-21 09:20:00,
2013-01-21 04:25:00,24.8,6.0,29.75,WNW,291,0.0,0.0,44,0.00,,,0.00,WXlink_for_OpenVMS,2013-01-21 09:25:00,
2013-01-21 04:31:00,24.8,6.0,29.75,WNW,291,0.0,0.0,44,0.00,,,0.00,WXlink_for_OpenVMS,2013-01-21 09:31:00,
2013-01-21 04:40:00,24.6,6.0,29.75,WNW,291,0.0,0.0,44,0.00,,,0.00,WXlink_for_OpenVMS,2013-01-21 09:40:00,
2013-01-21 04:45:00,24.4,6.0,29.75,WNW,291,0.0,0.0,44,0.00,,,0.00,WXlink_for_OpenVMS,2013-01-21 09:45:00,
2013-01-21 04:51:00,24.4,6.0,29.75,WNW,291,0.0,0.0,44,0.00,,,0.00,WXlink_for_OpenVMS,2013-01-21 09:51:00,
2013-01-21 04:55:00,23.9,5.0,29.75,WNW,291,0.0,0.0,44,0.00,,,0.00,WXlink_for_OpenVMS,2013-01-21 09:55:00,
2013-01-21 05:01:00,23.7,5.0,29.75,North,0,0.0,0.0,44,0.00,,,0.00,WXlink_for_OpenVMS,2013-01-21 10:01:00,
2013-01-21 05:06:00,23.5,5.0,29.75,North,0,0.0,0.0,44,0.00,,,0.00,WXlink_for_OpenVMS,2013-01-21 10:06:00,
2013-01-21 05:10:00,23.5,5.0,29.75,North,0,0.0,0.0,45,0.00,,,0.00,WXlink_for_OpenVMS,2013-01-21 10:10:00,
2013-01-21 05:15:00,23.7,5.0,29.75,North,0,0.0,0.0,45,0.00,,,0.00,WXlink_for_OpenVMS,2013-01-21 10:15:00,
2013-01-21 05:20:00,23.7,5.0,29.75,North,0,0.0,0.0,45,0.00,,,0.00,WXlink_for_OpenVMS,2013-01-21 10:20:00,
2013-01-21 05:26:00,23.7,6.0,29.75,North,0,0.0,0.0,46,0.00,,,0.00,WXlink_for_OpenVMS,2013-01-21 10:26:00,
2013-01-21 05:31:00,23.7,6.0,29.75,North,0,0.0,0.0,46,0.00,,,0.00,WXlink_for_OpenVMS,2013-01-21 10:31:00,
2013-01-21 05:36:00,23.7,6.0,29.75,North,0,0.0,0.0,46,0.00,,,0.00,WXlink_for_OpenVMS,2013-01-21 10:36:00,
2013-01-21 05:45:00,23.5,6.0,29.75,North,0,0.0,0.0,46,0.00,,,0.00,WXlink_for_OpenVMS,2013-01-21 10:45:00,
2013-01-21 05:50:00,23.5,6.0,29.75,North,0,0.0,0.0,46,0.00,,,0.00,WXlink_for_OpenVMS,2013-01-21 10:50:00,
2013-01-21 05:55:00,23.4,6.0,29.75,North,0,0.0,0.0,46,0.00,,,0.00,WXlink_for_OpenVMS,2013-01-21 10:55:00,
2013-01-21 06:01:00,23.4,6.0,29.78,North,0,0.0,0.0,46,0.00,,,0.00,WXlink_for_OpenVMS,2013-01-21 11:01:00,
2013-01-21 06:06:00,23.2,5.0,29.78,North,0,0.0,0.0,46,0.00,,,0.00,WXlink_for_OpenVMS,2013-01-21 11:06:00,
2013-01-21 06:15:00,23.2,5.0,29.78,North,0,0.0,0.0,46,0.00,,,0.00,WXlink_for_OpenVMS,2013-01-21 11:15:00,
2013-01-21 06:21:00,23.2,5.0,29.78,North,0,0.0,0.0,46,0.00,,,0.00,WXlink_for_OpenVMS,2013-01-21 11:21:00,
2013-01-21 06:30:00,23.2,5.0,29.78,North,0,0.0,0.0,46,0.00,,,0.00,WXlink_for_OpenVMS,2013-01-21 11:30:00,
2013-01-21 06:36:00,23.0,5.0,29.78,North,0,0.0,0.0,46,0.00,,,0.00,WXlink_for_OpenVMS,2013-01-21 11:36:00,
2013-01-21 06:41:00,23.0,5.0,29.78,North,0,0.0,0.0,46,0.00,,,0.00,WXlink_for_OpenVMS,2013-01-21 11:41:00,
2013-01-21 06:51:00,22.8,5.0,29.78,North,0,0.0,0.0,46,0.00,,,0.00,WXlink_for_OpenVMS,2013-01-21 11:51:00,
2013-01-21 06:56:00,22.8,5.0,29.78,North,0,0.0,0.0,46,0.00,,,0.00,WXlink_for_OpenVMS,2013-01-21 11:56:00,
2013-01-21 07:00:00,22.8,5.0,29.78,North,0,0.0,0.0,46,0.00,,,0.00,WXlink_for_OpenVMS,2013-01-21 12:00:00,
2013-01-21 07:06:00,22.8,5.0,29.78,North,0,0.0,0.0,46,0.00,,,0.00,WXlink_for_OpenVMS,2013-01-21 12:06:00,
2013-01-21 07:10:00,22.8,5.0,29.78,North,0,0.0,0.0,46,0.00,,,0.00,WXlink_for_OpenVMS,2013-01-21 12:10:00,
2013-01-21 07:15:00,22.8,5.0,29.78,North,0,0.0,0.0,46,0.00,,,0.00,WXlink_for_OpenVMS,2013-01-21 12:15:00,
2013-01-21 07:21:00,22.8,5.0,29.78,North,0,0.0,0.0,46,0.00,,,0.00,WXlink_for_OpenVMS,2013-01-21 12:21:00,
2013-01-21 07:26:00,22.8,5.0,29.78,North,0,0.0,0.0,46,0.00,,,0.00,WXlink_for_OpenVMS,2013-01-21 12:26:00,
2013-01-21 07:31:00,22.8,5.0,29.78,North,0,0.0,0.0,46,0.00,,,0.00,WXlink_for_OpenVMS,2013-01-21 12:31:00,
2013-01-21 07:40:00,22.8,5.0,29.78,North,0,0.0,0.0,46,0.00,,,0.00,WXlink_for_OpenVMS,2013-01-21 12:40:00,
2013-01-21 07:46:00,22.8,5.0,29.78,North,0,0.0,0.0,46,0.00,,,0.00,WXlink_for_OpenVMS,2013-01-21 12:46:00,
2013-01-21 07:50:00,22.8,5.0,29.78,North,0,0.0,0.0,46,0.00,,,0.00,WXlink_for_OpenVMS,2013-01-21 12:50:00,
2013-01-21 07:55:00,22.8,5.0,29.78,North,0,0.0,0.0,46,0.00,,,0.00,WXlink_for_OpenVMS,2013-01-21 12:55:00,
2013-01-21 08:01:00,23.0,5.0,29.78,North,0,0.0,0.0,46,0.00,,,0.00,WXlink_for_OpenVMS,2013-01-21 13:01:00,
2013-01-21 08:10:00,23.2,5.0,29.78,North,0,0.0,0.0,46,0.00,,,0.00,WXlink_for_OpenVMS,2013-01-21 13:10:00,
2013-01-21 08:16:00,23.5,6.0,29.78,SSW,204,0.0,0.0,46,0.00,,,0.00,WXlink_for_OpenVMS,2013-01-21 13:16:00,
2013-01-21 08:20:00,23.7,6.0,29.78,SSW,204,0.0,0.0,46,0.00,,,0.00,WXlink_for_OpenVMS,2013-01-21 13:20:00,
2013-01-21 08:25:00,24.3,6.0,29.78,SSW,204,0.0,0.0,46,0.00,,,0.00,WXlink_for_OpenVMS,2013-01-21 13:25:00,
2013-01-21 08:30:00,24.4,7.0,29.78,SW,215,0.0,0.0,46,0.00,,,0.00,WXlink_for_OpenVMS,2013-01-21 13:30:00,
2013-01-21 08:35:00,24.8,7.0,29.78,SW,216,3.1,3.6,46,0.00,,,0.00,WXlink_for_OpenVMS,2013-01-21 13:35:00,
2013-01-21 08:41:00,25.0,7.0,29.78,SW,219,2.2,2.7,45,0.00,,,0.00,WXlink_for_OpenVMS,2013-01-21 13:41:00,
2013-01-21 08:50:00,25.2,7.0,29.81,WNW,303,0.0,0.0,45,0.00,,,0.00,WXlink_for_OpenVMS,2013-01-21 13:50:00,
2013-01-21 08:55:00,25.3,7.0,29.81,WSW,245,0.0,0.0,45,0.00,,,0.00,WXlink_for_OpenVMS,2013-01-21 13:55:00,
2013-01-21 09:00:00,25.7,7.0,29.81,WSW,257,3.6,4.0,45,0.00,,,0.00,WXlink_for_OpenVMS,2013-01-21 14:00:00,
2013-01-21 09:06:00,25.7,7.0,29.81,WSW,251,0.0,0.0,44,0.00,,,0.00,WXlink_for_OpenVMS,2013-01-21 14:06:00,
2013-01-21 09:10:00,25.7,7.0,29.81,SSW,195,2.2,3.1,44,0.00,,,0.00,WXlink_for_OpenVMS,2013-01-21 14:10:00,
2013-01-21 09:15:00,25.9,7.0,29.81,SW,224,2.2,4.0,44,0.00,,,0.00,WXlink_for_OpenVMS,2013-01-21 14:15:00,
2013-01-21 09:20:00,26.1,7.0,29.81,West,262,4.0,4.0,44,0.00,,,0.00,WXlink_for_OpenVMS,2013-01-21 14:20:00,
2013-01-21 09:26:00,26.1,7.0,29.81,West,262,3.6,3.6,44,0.00,,,0.00,WXlink_for_OpenVMS,2013-01-21 14:26:00,
2013-01-21 09:30:00,26.2,7.0,29.81,West,260,2.7,2.7,44,0.00,,,0.00,WXlink_for_OpenVMS,2013-01-21 14:30:00,
2013-01-21 09:35:00,26.6,8.0,29.81,SW,217,2.2,4.9,44,0.00,,,0.00,WXlink_for_OpenVMS,2013-01-21 14:35:00,
2013-01-21 09:41:00,26.6,8.0,29.81,SSE,168,4.9,4.9,44,0.00,,,0.00,WXlink_for_OpenVMS,2013-01-21 14:41:00,
2013-01-21 09:50:00,26.8,7.0,29.81,West,279,0.0,3.1,43,0.00,,,0.00,WXlink_for_OpenVMS,2013-01-21 14:50:00,
2013-01-21 09:55:00,26.8,7.0,29.81,WSW,244,0.0,4.0,43,0.00,,,0.00,WXlink_for_OpenVMS,2013-01-21 14:55:00,
2013-01-21 10:00:00,26.6,7.0,29.81,WSW,244,0.0,0.0,43,0.00,,,0.00,WXlink_for_OpenVMS,2013-01-21 15:00:00,
2013-01-21 10:06:00,27.0,7.0,29.81,South,191,0.0,0.0,43,0.00,,,0.00,WXlink_for_OpenVMS,2013-01-21 15:06:00,
2013-01-21 10:11:00,27.1,8.0,29.81,South,190,2.2,4.0,44,0.00,,,0.00,WXlink_for_OpenVMS,2013-01-21 15:11:00,
2013-01-21 10:20:00,27.5,8.0,29.81,WSW,239,3.1,3.1,43,0.00,,,0.00,WXlink_for_OpenVMS,2013-01-21 15:20:00,
2013-01-21 10:25:00,27.5,8.0,29.81,SSW,192,0.0,2.2,43,0.00,,,0.00,WXlink_for_OpenVMS,2013-01-21 15:25:00,
2013-01-21 10:30:00,27.5,8.0,29.81,SW,231,3.6,3.6,43,0.00,,,0.00,WXlink_for_OpenVMS,2013-01-21 15:30:00,
2013-01-21 10:36:00,27.3,8.0,29.81,West,269,0.0,0.0,43,0.00,,,0.00,WXlink_for_OpenVMS,2013-01-21 15:36:00,
2013-01-21 10:46:00,27.5,8.0,29.78,WSW,240,0.0,0.0,43,0.00,,,0.00,WXlink_for_OpenVMS,2013-01-21 15:46:00,
2013-01-21 10:50:00,27.7,8.0,29.78,West,279,0.0,3.6,43,0.00,,,0.00,WXlink_for_OpenVMS,2013-01-21 15:50:00,
2013-01-21 10:55:00,27.7,8.0,29.78,SW,226,0.0,0.0,43,0.00,,,0.00,WXlink_for_OpenVMS,2013-01-21 15:55:00,
2013-01-21 11:00:00,27.9,8.0,29.78,SW,219,0.0,2.7,43,0.00,,,0.00,WXlink_for_OpenVMS,2013-01-21 16:00:00,
2013-01-21 11:06:00,27.9,8.0,29.78,SSW,206,2.7,2.7,43,0.00,,,0.00,WXlink_for_OpenVMS,2013-01-21 16:06:00,
2013-01-21 11:10:00,28.0,8.0,29.78,SW,222,0.0,5.4,43,0.00,,,0.00,WXlink_for_OpenVMS,2013-01-21 16:10:00,
2013-01-21 11:15:00,28.0,8.0,29.78,NW,312,2.7,0.0,43,0.00,,,0.00,WXlink_for_OpenVMS,2013-01-21 16:15:00,
2013-01-21 11:21:00,28.0,8.0,29.78,West,277,0.0,0.0,43,0.00,,,0.00,WXlink_for_OpenVMS,2013-01-21 16:21:00,
2013-01-21 11:25:00,27.9,8.0,29.78,WSW,258,0.0,0.0,42,0.00,,,0.00,WXlink_for_OpenVMS,2013-01-21 16:25:00,
2013-01-21 11:31:00,28.0,8.0,29.78,West,259,0.0,0.0,43,0.00,,,0.00,WXlink_for_OpenVMS,2013-01-21 16:31:00,
2013-01-21 11:36:00,28.2,9.0,29.78,SW,225,2.7,4.9,43,0.00,,,0.00,WXlink_for_OpenVMS,2013-01-21 16:36:00,
2013-01-21 11:45:00,28.6,8.0,29.75,SSW,198,3.1,3.1,42,0.00,,,0.00,WXlink_for_OpenVMS,2013-01-21 16:45:00,
2013-01-21 11:50:00,28.6,9.0,29.75,WNW,296,0.0,4.0,43,0.00,,,0.00,WXlink_for_OpenVMS,2013-01-21 16:50:00,
2013-01-21 11:55:00,28.8,9.0,29.75,SW,220,2.7,2.7,42,0.00,,,0.00,WXlink_for_OpenVMS,2013-01-21 16:55:00,
2013-01-21 12:00:00,28.9,9.0,29.75,SSE,167,2.2,4.9,42,0.00,,,0.00,WXlink_for_OpenVMS,2013-01-21 17:00:00,
2013-01-21 12:06:00,29.1,9.0,29.75,SSE,165,2.7,5.4,42,0.00,,,0.00,WXlink_for_OpenVMS,2013-01-21 17:06:00,
2013-01-21 12:15:00,29.5,9.0,29.72,SW,216,2.7,4.9,42,0.00,,,0.00,WXlink_for_OpenVMS,2013-01-21 17:15:00,
2013-01-21 12:20:00,29.7,9.0,29.72,SW,234,3.1,0.0,42,0.00,,,0.00,WXlink_for_OpenVMS,2013-01-21 17:20:00,
2013-01-21 12:25:00,29.7,9.0,29.72,SSW,193,0.0,0.0,42,0.00,,,0.00,WXlink_for_OpenVMS,2013-01-21 17:25:00,
2013-01-21 12:31:00,29.7,9.0,29.72,South,185,0.0,0.0,42,0.00,,,0.00,WXlink_for_OpenVMS,2013-01-21 17:31:00,
2013-01-21 12:40:00,30.0,10.0,29.72,South,183,0.0,0.0,42,0.00,,,0.00,WXlink_for_OpenVMS,2013-01-21 17:40:00,
2013-01-21 12:45:00,30.2,10.0,29.72,East,85,3.1,3.1,42,0.00,,,0.00,WXlink_for_OpenVMS,2013-01-21 17:45:00,
2013-01-21 12:50:00,30.2,10.0,29.72,ESE,109,0.0,0.0,42,0.00,,,0.00,WXlink_for_OpenVMS,2013-01-21 17:50:00,
2013-01-21 12:55:00,30.4,10.0,29.72,SE,136,2.2,0.0,42,0.00,,,0.00,WXlink_for_OpenVMS,2013-01-21 17:55:00,
2013-01-21 13:00:00,30.4,9.0,29.72,SE,136,0.0,0.0,41,0.00,,,0.00,WXlink_for_OpenVMS,2013-01-21 18:00:00,
2013-01-21 13:06:00,30.6,10.0,29.72,SSW,205,0.0,3.6,41,0.00,,,0.00,WXlink_for_OpenVMS,2013-01-21 18:06:00,
2013-01-21 13:10:00,30.4,10.0,29.72,WSW,237,3.1,3.1,42,0.00,,,0.00,WXlink_for_OpenVMS,2013-01-21 18:10:00,
2013-01-21 13:16:00,30.4,10.0,29.72,SW,235,0.0,0.0,42,0.00,,,0.00,WXlink_for_OpenVMS,2013-01-21 18:16:00,
2013-01-21 13:26:00,29.8,10.0,29.72,SW,233,0.0,0.0,42,0.00,,,0.00,WXlink_for_OpenVMS,2013-01-21 18:26:00,
2013-01-21 13:36:00,29.7,9.0,29.69,WSW,244,0.0,0.0,42,0.00,,,0.00,WXlink_for_OpenVMS,2013-01-21 18:36:00,
2013-01-21 13:45:00,29.7,9.0,29.69,SSW,196,0.0,0.0,42,0.00,,,0.00,WXlink_for_OpenVMS,2013-01-21 18:45:00,
2013-01-21 13:50:00,29.8,10.0,29.69,West,268,3.6,3.6,42,0.00,,,0.00,WXlink_for_OpenVMS,2013-01-21 18:50:00,
2013-01-21 13:55:00,29.8,10.0,29.69,SSW,211,0.0,0.0,42,0.00,,,0.00,WXlink_for_OpenVMS,2013-01-21 18:55:00,
2013-01-21 14:00:00,30.0,10.0,29.69,SSW,207,2.7,0.0,42,0.00,,,0.00,WXlink_for_OpenVMS,2013-01-21 19:00:00,
2013-01-21 14:06:00,30.0,10.0,29.69,West,266,0.0,0.0,42,0.00,,,0.00,WXlink_for_OpenVMS,2013-01-21 19:06:00,
2013-01-21 14:15:00,30.0,10.0,29.69,West,267,2.7,2.7,42,0.00,,,0.00,WXlink_for_OpenVMS,2013-01-21 19:15:00,
2013-01-21 14:20:00,29.8,10.0,29.69,West,264,2.7,3.6,42,0.00,,,0.00,WXlink_for_OpenVMS,2013-01-21 19:20:00,
2013-01-21 14:25:00,29.8,10.0,29.69,West,265,3.1,0.0,42,0.00,,,0.00,WXlink_for_OpenVMS,2013-01-21 19:25:00,
2013-01-21 14:31:00,29.8,10.0,29.69,SSW,197,0.0,4.0,42,0.00,,,0.00,WXlink_for_OpenVMS,2013-01-21 19:31:00,
2013-01-21 14:40:00,29.8,10.0,29.69,SSW,206,0.0,0.0,42,0.00,,,0.00,WXlink_for_OpenVMS,2013-01-21 19:40:00,
2013-01-21 14:45:00,29.8,10.0,29.69,WNW,288,0.0,0.0,42,0.00,,,0.00,WXlink_for_OpenVMS,2013-01-21 19:45:00,
2013-01-21 14:50:00,30.0,10.0,29.69,SSW,192,0.0,0.0,42,0.00,,,0.00,WXlink_for_OpenVMS,2013-01-21 19:50:00,
2013-01-21 14:55:00,29.8,10.0,29.69,SSW,192,0.0,0.0,42,0.00,,,0.00,WXlink_for_OpenVMS,2013-01-21 19:55:00,
2013-01-21 15:01:00,29.8,10.0,29.69,SSW,192,0.0,0.0,42,0.00,,,0.00,WXlink_for_OpenVMS,2013-01-21 20:01:00,
2013-01-21 15:10:00,30.0,10.0,29.69,SSW,192,0.0,0.0,42,0.00,,,0.00,WXlink_for_OpenVMS,2013-01-21 20:10:00,
2013-01-21 15:16:00,29.8,10.0,29.66,SSW,192,0.0,0.0,42,0.00,,,0.00,WXlink_for_OpenVMS,2013-01-21 20:16:00,
2013-01-21 15:26:00,29.8,10.0,29.66,SSW,192,0.0,0.0,42,0.00,,,0.00,WXlink_for_OpenVMS,2013-01-21 20:26:00,
2013-01-21 15:35:00,29.8,10.0,29.69,SW,224,2.7,3.6,42,0.00,,,0.00,WXlink_for_OpenVMS,2013-01-21 20:35:00,
2013-01-21 15:40:00,29.8,10.0,29.69,SW,224,0.0,0.0,42,0.00,,,0.00,WXlink_for_OpenVMS,2013-01-21 20:40:00,
2013-01-21 15:46:00,29.8,10.0,29.66,West,259,3.1,3.1,43,0.00,,,0.00,WXlink_for_OpenVMS,2013-01-21 20:46:00,
2013-01-21 15:50:00,29.7,10.0,29.66,SW,232,0.0,0.0,43,0.00,,,0.00,WXlink_for_OpenVMS,2013-01-21 20:50:00,
2013-01-21 15:56:00,29.5,10.0,29.66,West,262,0.0,0.0,43,0.00,,,0.00,WXlink_for_OpenVMS,2013-01-21 20:56:00,
2013-01-21 16:06:00,29.3,10.0,29.66,NE,46,0.0,0.0,43,0.00,,,0.00,WXlink_for_OpenVMS,2013-01-21 21:06:00,
2013-01-21 16:16:00,29.3,10.0,29.66,NE,46,0.0,0.0,43,0.00,,,0.00,WXlink_for_OpenVMS,2013-01-21 21:16:00,
2013-01-21 16:26:00,28.9,9.0,29.66,ESE,102,0.0,0.0,43,0.00,,,0.00,WXlink_for_OpenVMS,2013-01-21 21:26:00,
2013-01-21 16:35:00,28.6,9.0,29.66,SSW,195,0.0,0.0,44,0.00,,,0.00,WXlink_for_OpenVMS,2013-01-21 21:35:00,
2013-01-21 16:40:00,28.6,9.0,29.66,SSW,195,0.0,0.0,44,0.00,,,0.00,WXlink_for_OpenVMS,2013-01-21 21:40:00,
2013-01-21 16:45:00,28.4,9.0,29.66,SW,217,0.0,0.0,44,0.00,,,0.00,WXlink_for_OpenVMS,2013-01-21 21:45:00,
2013-01-21 16:50:00,28.4,9.0,29.66,SSW,207,0.0,0.0,44,0.00,,,0.00,WXlink_for_OpenVMS,2013-01-21 21:50:00,
2013-01-21 16:55:00,28.4,10.0,29.66,WSW,237,0.0,4.0,45,0.00,,,0.00,WXlink_for_OpenVMS,2013-01-21 21:55:00,
2013-01-21 17:00:00,28.2,10.0,29.66,West,277,0.0,0.0,45,0.00,,,0.00,WXlink_for_OpenVMS,2013-01-21 22:00:00,
2013-01-21 17:06:00,28.0,9.0,29.66,West,266,0.0,0.0,45,0.00,,,0.00,WXlink_for_OpenVMS,2013-01-21 22:06:00,
2013-01-21 17:16:00,27.9,10.0,29.66,SSW,211,0.0,0.0,46,0.00,,,0.00,WXlink_for_OpenVMS,2013-01-21 22:16:00,
2013-01-21 17:25:00,27.7,11.0,29.66,SSW,211,0.0,0.0,48,0.00,,,0.00,WXlink_for_OpenVMS,2013-01-21 22:25:00,
2013-01-21 17:30:00,27.3,11.0,29.66,SSW,211,0.0,0.0,49,0.00,,,0.00,WXlink_for_OpenVMS,2013-01-21 22:30:00,
2013-01-21 17:36:00,27.1,11.0,29.66,SSW,211,0.0,0.0,50,0.00,,,0.00,WXlink_for_OpenVMS,2013-01-21 22:36:00,
2013-01-21 17:45:00,27.0,12.0,29.66,SSW,211,0.0,0.0,52,0.00,,,0.00,WXlink_for_OpenVMS,2013-01-21 22:45:00,
2013-01-21 17:50:00,26.8,12.0,29.66,SSW,211,0.0,0.0,54,0.00,,,0.00,WXlink_for_OpenVMS,2013-01-21 22:50:00,
2013-01-21 17:56:00,26.4,12.0,29.66,SSW,211,0.0,0.0,55,0.00,,,0.00,WXlink_for_OpenVMS,2013-01-21 22:56:00,
2013-01-21 18:01:00,26.4,13.0,29.66,SSW,211,0.0,0.0,56,0.00,,,0.00,WXlink_for_OpenVMS,2013-01-21 23:01:00,
2013-01-21 18:11:00,26.1,14.0,29.66,SSW,211,0.0,0.0,60,0.00,,,0.00,WXlink_for_OpenVMS,2013-01-21 23:11:00,
2013-01-21 18:15:00,25.9,14.0,29.66,SSW,211,0.0,0.0,61,0.00,,,0.00,WXlink_for_OpenVMS,2013-01-21 23:15:00,
2013-01-21 18:20:00,26.1,15.0,29.66,SSW,211,0.0,0.0,62,0.00,,,0.00,WXlink_for_OpenVMS,2013-01-21 23:20:00,
2013-01-21 18:25:00,25.9,15.0,29.66,SSW,211,0.0,0.0,63,0.00,,,0.00,WXlink_for_OpenVMS,2013-01-21 23:25:00,
2013-01-21 18:31:00,25.7,15.0,29.66,SSW,211,0.0,0.0,64,0.00,,,0.00,WXlink_for_OpenVMS,2013-01-21 23:31:00,
2013-01-21 18:35:00,25.3,15.0,29.66,SSW,211,0.0,0.0,65,0.00,,,0.00,WXlink_for_OpenVMS,2013-01-21 23:35:00,
2013-01-21 18:40:00,25.3,16.0,29.66,SSW,211,0.0,0.0,66,0.00,,,0.00,WXlink_for_OpenVMS,2013-01-21 23:40:00,
2013-01-21 18:45:00,25.3,16.0,29.66,SSW,211,0.0,0.0,66,0.00,,,0.00,WXlink_for_OpenVMS,2013-01-21 23:45:00,
2013-01-21 18:50:00,25.2,16.0,29.66,SSW,211,0.0,0.0,67,0.00,,,0.00,WXlink_for_OpenVMS,2013-01-21 23:50:00,
2013-01-21 18:55:00,25.2,16.0,29.66,SSW,211,0.0,0.0,68,0.00,,,0.00,WXlink_for_OpenVMS,2013-01-21 23:55:00,
2013-01-21 19:01:00,25.2,16.0,29.66,SSW,211,0.0,0.0,69,0.00,,,0.00,WXlink_for_OpenVMS,2013-01-22 00:01:00,
2013-01-21 19:06:00,25.3,17.0,29.66,SSW,211,0.0,0.0,69,0.00,,,0.00,WXlink_for_OpenVMS,2013-01-22 00:06:00,
2013-01-21 19:10:00,25.5,17.0,29.66,SSW,211,0.0,0.0,70,0.00,,,0.00,WXlink_for_OpenVMS,2013-01-22 00:10:00,
2013-01-21 19:15:00,25.5,17.0,29.66,SSW,211,0.0,0.0,70,0.00,,,0.00,WXlink_for_OpenVMS,2013-01-22 00:15:00,
2013-01-21 19:20:00,25.3,17.0,29.66,SSW,211,0.0,0.0,71,0.00,,,0.00,WXlink_for_OpenVMS,2013-01-22 00:20:00,
2013-01-21 19:25:00,25.2,17.0,29.66,SSW,211,0.0,0.0,71,0.00,,,0.00,WXlink_for_OpenVMS,2013-01-22 00:25:00,
2013-01-21 19:31:00,25.2,17.0,29.63,SSW,211,0.0,0.0,71,0.00,,,0.00,WXlink_for_OpenVMS,2013-01-22 00:31:00,
2013-01-21 19:36:00,25.2,17.0,29.63,SSW,211,0.0,0.0,72,0.00,,,0.00,WXlink_for_OpenVMS,2013-01-22 00:36:00,
2013-01-21 19:41:00,25.2,17.0,29.63,SSW,211,0.0,0.0,72,0.00,,,0.00,WXlink_for_OpenVMS,2013-01-22 00:41:00,
2013-01-21 19:46:00,25.3,18.0,29.63,SSW,211,0.0,0.0,73,0.00,,,0.00,WXlink_for_OpenVMS,2013-01-22 00:46:00,
2013-01-21 19:56:00,25.2,18.0,29.63,SSW,211,0.0,0.0,73,0.00,,,0.00,WXlink_for_OpenVMS,2013-01-22 00:56:00,
2013-01-21 20:00:00,25.2,18.0,29.63,SSW,211,0.0,0.0,73,0.00,,,0.00,WXlink_for_OpenVMS,2013-01-22 01:00:00,
2013-01-21 20:06:00,25.3,18.0,29.63,SSW,211,0.0,0.0,74,0.00,,,0.00,WXlink_for_OpenVMS,2013-01-22 01:06:00,
2013-01-21 20:10:00,25.0,18.0,29.63,SSW,211,0.0,0.0,74,0.00,,,0.00,WXlink_for_OpenVMS,2013-01-22 01:10:00,
2013-01-21 20:16:00,24.6,18.0,29.63,SSW,211,0.0,0.0,74,0.00,,,0.00,WXlink_for_OpenVMS,2013-01-22 01:16:00,
2013-01-21 20:25:00,24.6,18.0,29.63,SSW,211,0.0,0.0,75,0.00,,,0.00,WXlink_for_OpenVMS,2013-01-22 01:25:00,
2013-01-21 20:31:00,24.8,18.0,29.63,SSW,211,0.0,0.0,75,0.00,,,0.00,WXlink_for_OpenVMS,2013-01-22 01:31:00,
2013-01-21 20:35:00,25.0,18.0,29.63,SSW,211,0.0,0.0,75,0.00,,,0.00,WXlink_for_OpenVMS,2013-01-22 01:35:00,
2013-01-21 20:40:00,25.2,18.0,29.63,SSW,211,0.0,0.0,75,0.00,,,0.00,WXlink_for_OpenVMS,2013-01-22 01:40:00,
2013-01-21 20:46:00,25.2,18.0,29.63,SSW,211,0.0,0.0,75,0.00,,,0.00,WXlink_for_OpenVMS,2013-01-22 01:46:00,
2013-01-21 20:50:00,25.3,19.0,29.63,SSW,211,0.0,0.0,75,0.00,,,0.00,WXlink_for_OpenVMS,2013-01-22 01:50:00,
2013-01-21 20:55:00,25.2,19.0,29.63,SSW,211,0.0,0.0,76,0.00,,,0.00,WXlink_for_OpenVMS,2013-01-22 01:55:00,
2013-01-21 21:01:00,25.3,19.0,29.63,SSW,211,0.0,0.0,76,0.00,,,0.00,WXlink_for_OpenVMS,2013-01-22 02:01:00,
2013-01-21 21:10:00,25.3,19.0,29.63,SSW,211,0.0,0.0,76,0.00,,,0.00,WXlink_for_OpenVMS,2013-01-22 02:10:00,
2013-01-21 21:15:00,25.3,19.0,29.60,SSW,211,0.0,0.0,76,0.00,,,0.00,WXlink_for_OpenVMS,2013-01-22 02:15:00,
2013-01-21 21:20:00,24.8,18.0,29.60,SSW,211,0.0,0.0,76,0.00,,,0.00,WXlink_for_OpenVMS,2013-01-22 02:20:00,
2013-01-21 21:26:00,24.8,18.0,29.60,SSW,211,0.0,0.0,76,0.00,,,0.00,WXlink_for_OpenVMS,2013-01-22 02:26:00,
2013-01-21 21:30:00,24.8,18.0,29.60,SSW,211,0.0,0.0,76,0.00,,,0.00,WXlink_for_OpenVMS,2013-01-22 02:30:00,
2013-01-21 21:36:00,24.8,19.0,29.60,SSW,211,0.0,0.0,77,0.00,,,0.00,WXlink_for_OpenVMS,2013-01-22 02:36:00,
2013-01-21 21:46:00,25.0,19.0,29.60,SSW,211,0.0,0.0,77,0.00,,,0.00,WXlink_for_OpenVMS,2013-01-22 02:46:00,
2013-01-21 21:50:00,24.8,19.0,29.60,SSW,211,0.0,0.0,77,0.00,,,0.00,WXlink_for_OpenVMS,2013-01-22 02:50:00,
2013-01-21 21:56:00,24.8,19.0,29.60,SSW,211,0.0,0.0,77,0.00,,,0.00,WXlink_for_OpenVMS,2013-01-22 02:56:00,
2013-01-21 22:06:00,24.8,19.0,29.60,SSW,211,0.0,0.0,77,0.00,,,0.00,WXlink_for_OpenVMS,2013-01-22 03:06:00,
2013-01-21 22:10:00,25.0,19.0,29.60,SSW,211,0.0,0.0,77,0.00,,,0.00,WXlink_for_OpenVMS,2013-01-22 03:10:00,
2013-01-21 22:15:00,25.0,19.0,29.58,SSW,211,0.0,0.0,77,0.00,,,0.00,WXlink_for_OpenVMS,2013-01-22 03:15:00,
2013-01-21 22:20:00,25.0,19.0,29.58,SSW,211,0.0,0.0,77,0.00,,,0.00,WXlink_for_OpenVMS,2013-01-22 03:20:00,
2013-01-21 22:25:00,25.0,19.0,29.58,SSW,211,0.0,0.0,77,0.00,,,0.00,WXlink_for_OpenVMS,2013-01-22 03:25:00,
2013-01-21 22:30:00,25.2,19.0,29.58,SSW,211,0.0,0.0,77,0.00,,,0.00,WXlink_for_OpenVMS,2013-01-22 03:30:00,
2013-01-21 22:35:00,24.6,18.0,29.58,SSW,211,0.0,0.0,77,0.00,,,0.00,WXlink_for_OpenVMS,2013-01-22 03:35:00,
2013-01-21 22:40:00,24.8,19.0,29.58,SSW,211,0.0,0.0,78,0.00,,,0.00,WXlink_for_OpenVMS,2013-01-22 03:40:00,
2013-01-21 22:46:00,25.0,19.0,29.58,SSW,211,0.0,0.0,78,0.00,,,0.00,WXlink_for_OpenVMS,2013-01-22 03:46:00,
2013-01-21 22:55:00,24.6,19.0,29.58,SSW,211,0.0,0.0,78,0.00,,,0.00,WXlink_for_OpenVMS,2013-01-22 03:55:00,
2013-01-21 23:00:00,24.4,19.0,29.55,SSW,211,0.0,0.0,78,0.00,,,0.00,WXlink_for_OpenVMS,2013-01-22 04:00:00,
2013-01-21 23:06:00,24.4,19.0,29.55,SSW,211,0.0,0.0,78,0.00,,,0.00,WXlink_for_OpenVMS,2013-01-22 04:06:00,
2013-01-21 23:10:00,24.4,19.0,29.55,SSW,211,0.0,0.0,78,0.00,,,0.00,WXlink_for_OpenVMS,2013-01-22 04:10:00,
2013-01-21 23:15:00,24.4,19.0,29.55,SSW,211,0.0,0.0,78,0.00,,,0.00,WXlink_for_OpenVMS,2013-01-22 04:15:00,
2013-01-21 23:20:00,24.6,19.0,29.55,SSW,211,0.0,0.0,78,0.00,,,0.00,WXlink_for_OpenVMS,2013-01-22 04:20:00,
2013-01-21 23:25:00,24.6,19.0,29.55,SSW,211,0.0,0.0,78,0.00,,,0.00,WXlink_for_OpenVMS,2013-01-22 04:25:00,
2013-01-21 23:31:00,24.4,19.0,29.55,SSW,211,0.0,0.0,78,0.00,,,0.00,WXlink_for_OpenVMS,2013-01-22 04:31:00,
2013-01-21 23:40:00,24.4,19.0,29.55,SSW,211,0.0,0.0,78,0.00,,,0.00,WXlink_for_OpenVMS,2013-01-22 04:40:00,
2013-01-21 23:45:00,24.3,18.0,29.52,SSW,211,0.0,0.0,78,0.00,,,0.00,WXlink_for_OpenVMS,2013-01-22 04:45:00,
2013-01-21 23:50:00,24.3,18.0,29.52,SSW,211,0.0,0.0,78,0.00,,,0.00,WXlink_for_OpenVMS,2013-01-22 04:50:00,
2013-01-21 23:55:00,24.3,18.0,29.52,SSW,211,0.0,0.0,78,0.00,,,0.00,WXlink_for_OpenVMS,2013-01-22 04:55:00,